Previsão horária em Plodorodnoe

Hoje, 27 Fevereiro, Sábado

Tempo Temperatura Precipitação Vento Pressão Humidade
00:00 +2°C° 0 mm 8 m/s 755 mmHg 94%
01:00 +2°C° 0 mm 8 m/s 755 mmHg 93%
02:00 +2°C° 0 mm 8 m/s 755 mmHg 93%
03:00 +2°C° 0 mm 8 m/s 754 mmHg 93%
04:00 +2°C° 0 mm 8 m/s 754 mmHg 93%
05:00 +2°C° 0 mm 8 m/s 753 mmHg 92%
06:00 +2°C° 0 mm 8 m/s 753 mmHg 92%
07:00 +2°C° 0 mm 8 m/s 753 mmHg 92%
08:00 +2°C° 0 mm 8 m/s 753 mmHg 91%
09:00 +2°C° 0 mm 8 m/s 753 mmHg 91%
10:00 +3°C° 0 mm 7 m/s 753 mmHg 91%
11:00 +3°C° 0 mm 7 m/s 752 mmHg 91%
12:00 +3°C° 0 mm 7 m/s 752 mmHg 91%
13:00 +3°C° 0.1 mm 7 m/s 752 mmHg 91%
14:00 +3°C° 0.1 mm 6 m/s 752 mmHg 91%
15:00 +3°C° 0.1 mm 6 m/s 751 mmHg 92%
16:00 +3°C° 0.4 mm 6 m/s 751 mmHg 93%
17:00 +2°C° 0.4 mm 5 m/s 751 mmHg 94%
18:00 +2°C° 0.4 mm 5 m/s 751 mmHg 96%
19:00 +3°C° 0.8 mm 4 m/s 751 mmHg 96%
20:00 +1°C° 0.8 mm 4 m/s 751 mmHg 96%
21:00 +1°C° 0.8 mm 4 m/s 751 mmHg 96%
22:00 +2°C° 0 mm 3 m/s 751 mmHg 96%
23:00 +1°C° 0 mm 3 m/s 751 mmHg 95%

Amanhã, 28 Fevereiro, Domingo

Tempo Temperatura Precipitação Vento Pressão Humidade
00:00 +1°C° 0 mm 3 m/s 752 mmHg 95%
01:00 +1°C° 0 mm 3 m/s 752 mmHg 95%
02:00 +2°C° 0 mm 2 m/s 752 mmHg 94%
03:00 +1°C° 0 mm 2 m/s 752 mmHg 94%
04:00 +1°C° 0 mm 2 m/s 752 mmHg 94%
05:00 +1°C° 0 mm 2 m/s 752 mmHg 93%
06:00 +1°C° 0 mm 2 m/s 753 mmHg 93%
07:00 +1°C° 0 mm 2 m/s 753 mmHg 90%
08:00 +1°C° 0 mm 2 m/s 753 mmHg 88%
09:00 +2°C° 0 mm 2 m/s 753 mmHg 86%
10:00 +3°C° 0 mm 2 m/s 753 mmHg 80%
11:00 +3°C° 0 mm 2 m/s 753 mmHg 75%
12:00 +4°C° 0 mm 2 m/s 754 mmHg 70%
13:00 +4°C° 0.1 mm 2 m/s 754 mmHg 70%
14:00 +3°C° 0.1 mm 3 m/s 754 mmHg 71%
15:00 +3°C° 0.1 mm 3 m/s 754 mmHg 71%
16:00 +4°C° 0.1 mm 2 m/s 754 mmHg 74%
17:00 +3°C° 0.1 mm 2 m/s 754 mmHg 77%
18:00 +3°C° 0.1 mm 2 m/s 754 mmHg 80%
19:00 +3°C° 0 mm 2 m/s 755 mmHg 81%
20:00 +2°C° 0 mm 2 m/s 755 mmHg 83%
21:00 +2°C° 0 mm 2 m/s 756 mmHg 85%
22:00 +1°C° 0 mm 2 m/s 756 mmHg 87%
23:00 +1°C° 0 mm 2 m/s 756 mmHg 90%

Depois de amanhã, 1 Março, Segunda-feira

Tempo Temperatura Precipitação Vento Pressão Humidade
00:00 +1°C° 0 mm 1 m/s 756 mmHg 92%
01:00 +1°C° 0 mm 1 m/s 756 mmHg 93%
02:00 +1°C° 0 mm 1 m/s 756 mmHg 93%
03:00 +1°C° 0 mm 1 m/s 757 mmHg 94%
04:00 -1°C° 0 mm 2 m/s 757 mmHg 95%
05:00 -1°C° 0 mm 2 m/s 757 mmHg 96%
06:00 -1°C° 0 mm 2 m/s 758 mmHg 97%
07:00 -1°C° 0.1 mm 2 m/s 758 mmHg 96%
08:00 -1°C° 0.1 mm 2 m/s 758 mmHg 95%
09:00 +1°C° 0.1 mm 2 m/s 759 mmHg 94%
10:00 0°C° 0 mm 3 m/s 759 mmHg 91%
11:00 +1°C° 0 mm 3 m/s 759 mmHg 89%
12:00 +1°C° 0 mm 3 m/s 759 mmHg 87%
13:00 +2°C° 0.1 mm 3 m/s 759 mmHg 84%
14:00 +2°C° 0.1 mm 3 m/s 759 mmHg 81%
15:00 +2°C° 0.1 mm 3 m/s 759 mmHg 78%
16:00 +3°C° 0 mm 2 m/s 760 mmHg 80%
17:00 +2°C° 0 mm 2 m/s 760 mmHg 81%
18:00 +2°C° 0 mm 1 m/s 760 mmHg 83%
19:00 +2°C° 0 mm 1 m/s 760 mmHg 85%
20:00 +1°C° 0 mm 1 m/s 761 mmHg 86%
21:00 0°C° 0 mm 0 m/s 761 mmHg 88%
22:00 0°C° 0 mm 0 m/s 761 mmHg 88%
23:00 +1°C° 0 mm 1 m/s 761 mmHg 89%

2 Março, Terça-feira

Tempo Temperatura Precipitação Vento Pressão Humidade
00:00 +1°C° 0 mm 1 m/s 761 mmHg 89%
01:00 +1°C° 0 mm 1 m/s 761 mmHg 90%
02:00 +1°C° 0 mm 1 m/s 761 mmHg 90%
03:00 -1°C° 0 mm 2 m/s 761 mmHg 90%
04:00 -2°C° 0 mm 2 m/s 761 mmHg 91%
05:00 -2°C° 0 mm 2 m/s 761 mmHg 91%
06:00 -2°C° 0 mm 3 m/s 761 mmHg 92%
07:00 -1°C° 0 mm 3 m/s 761 mmHg 87%
08:00 -2°C° 0 mm 4 m/s 761 mmHg 81%
09:00 -1°C° 0 mm 5 m/s 761 mmHg 76%
10:00 0°C° 0 mm 5 m/s 760 mmHg 71%
11:00 +1°C° 0 mm 6 m/s 760 mmHg 66%
12:00 +2°C° 0 mm 7 m/s 759 mmHg 62%
13:00 +2°C° 0 mm 7 m/s 759 mmHg 61%
14:00 +1°C° 0 mm 8 m/s 758 mmHg 60%
15:00 +1°C° 0 mm 8 m/s 757 mmHg 59%
16:00 0°C° 0 mm 8 m/s 757 mmHg 63%
17:00 0°C° 0 mm 8 m/s 756 mmHg 68%
18:00 -1°C° 0 mm 7 m/s 755 mmHg 72%
19:00 -2°C° 0.5 mm 8 m/s 755 mmHg 80%
20:00 -3°C° 0.5 mm 9 m/s 755 mmHg 88%
21:00 -4°C° 0.5 mm 10 m/s 754 mmHg 96%
22:00 -3°C° 0.8 mm 9 m/s 754 mmHg 96%
23:00 -2°C° 0.8 mm 8 m/s 754 mmHg 96%

3 Março, Quarta-feira

Tempo Temperatura Precipitação Vento Pressão Humidade
00:00 -1°C° 0.8 mm 8 m/s 753 mmHg 96%
01:00 -2°C° 0.2 mm 7 m/s 753 mmHg 94%
02:00 -2°C° 0.2 mm 6 m/s 753 mmHg 91%
03:00 -1°C° 0.2 mm 5 m/s 753 mmHg 89%
04:00 -2°C° 0 mm 5 m/s 753 mmHg 90%
05:00 -2°C° 0 mm 4 m/s 754 mmHg 90%
06:00 -3°C° 0 mm 4 m/s 754 mmHg 91%
07:00 -2°C° 0 mm 4 m/s 755 mmHg 88%
08:00 -2°C° 0 mm 5 m/s 755 mmHg 86%
09:00 -2°C° 0 mm 5 m/s 755 mmHg 83%
10:00 -1°C° 0 mm 5 m/s 756 mmHg 80%
11:00 -2°C° 0 mm 6 m/s 756 mmHg 77%
12:00 -1°C° 0 mm 6 m/s 756 mmHg 75%
13:00 -1°C° 0.1 mm 6 m/s 756 mmHg 72%
14:00 -1°C° 0.1 mm 6 m/s 756 mmHg 70%
15:00 +1°C° 0.1 mm 6 m/s 756 mmHg 68%
16:00 -1°C° 0 mm 6 m/s 756 mmHg 70%
17:00 0°C° 0 mm 5 m/s 756 mmHg 72%
18:00 -1°C° 0 mm 4 m/s 756 mmHg 74%
19:00 -1°C° 0 mm 4 m/s 757 mmHg 76%
20:00 -2°C° 0 mm 4 m/s 757 mmHg 78%
21:00 -2°C° 0 mm 4 m/s 758 mmHg 80%
22:00 -2°C° 0 mm 4 m/s 758 mmHg 81%
23:00 -2°C° 0 mm 3 m/s 758 mmHg 82%

4 Março, Quinta-feira

Tempo Temperatura Precipitação Vento Pressão Humidade
00:00 -2°C° 0 mm 3 m/s 759 mmHg 83%
01:00 -2°C° 0 mm 3 m/s 759 mmHg 84%
02:00 -4°C° 0 mm 3 m/s 759 mmHg 84%
03:00 -4°C° 0 mm 3 m/s 759 mmHg 85%
04:00 -4°C° 0 mm 3 m/s 759 mmHg 85%
05:00 -4°C° 0 mm 3 m/s 759 mmHg 85%
06:00 -4°C° 0 mm 3 m/s 760 mmHg 85%
07:00 -2°C° 0 mm 3 m/s 760 mmHg 80%
08:00 -2°C° 0 mm 3 m/s 760 mmHg 74%
09:00 -2°C° 0 mm 4 m/s 761 mmHg 69%
10:00 -1°C° 0 mm 4 m/s 761 mmHg 65%
11:00 0°C° 0 mm 4 m/s 761 mmHg 61%
12:00 +1°C° 0 mm 4 m/s 761 mmHg 57%
13:00 +3°C° 0 mm 4 m/s 760 mmHg 56%
14:00 +3°C° 0 mm 4 m/s 760 mmHg 55%
15:00 +4°C° 0 mm 4 m/s 760 mmHg 54%
16:00 +3°C° 0 mm 4 m/s 759 mmHg 59%
17:00 +2°C° 0 mm 3 m/s 759 mmHg 64%
18:00 0°C° 0 mm 3 m/s 759 mmHg 69%
19:00 0°C° 0 mm 3 m/s 759 mmHg 71%
20:00 0°C° 0 mm 3 m/s 759 mmHg 72%
21:00 -1°C° 0 mm 3 m/s 759 mmHg 73%
22:00 -1°C° 0 mm 3 m/s 758 mmHg 74%
23:00 -1°C° 0 mm 3 m/s 758 mmHg 75%
Mostrar mais

Necessitamos do seu Consentimento

A Meteoprog e os seus Fornecedores de Serviços podem armazenar e aceder a dados pessoais como cookies, identificadores do dispositivo ou outras tecnologias semelhantes existentes no seu dispositivo e processar estes dados para personalizar conteúdos e anúncios, assim como funcionalidades nas redes sociais e análise de tráfego.

  • Armazenar e/ou aceder a informações no seu dispositivo

    Os cookies, identificadores do dispositivo ou outras informações podem ser armazenados ou acedidos no seu dispositivo, para os fins acima indicados.

  • Anúncios e conteúdos personalizados, medição de anúncios e conteúdos, dados sobre o público-alvo e desenvolvimento de produtos

    Os anúncios e os conteúdos podem ser personalizados com base num perfil. Podem ser adicionados dados adicionais para uma maior personalização dos anúncios e dos conteúdos. A eficácia dos anúncios e dos conteúdos pode ser medida. Podem ser obtidas informações sobre o público que visualizou os anúncios e os conteúdos. Estes dados podem ser usados para desenvolver ou melhorar sistemas, softwares ou a experiência do utilizador.

Ao clicar em "Eu concordo”, permitirá o uso de cookies, identificadores do dispositivo e web beacons mencionados ou outras tecnologias semelhantes. As configurações do navegador do seu dispositivo podem ser alteradas.

Para certos fins, podem ser invocados interesses legítimos ao invés de consentimento. Pode ler mais informação sobre este assunto na nossa Política de Privacidade e Cookies.